KB2SKP Weather Reports


time (UTC)temp
C
wind
direction
speed
KPH
gust
KPH
rain 1hr
cm
rain 24hr
cm
rain mn
cm
humidity
%
barometer
mb
20260507101219 13 285 3.2 4.8 0.00 0.05 0.05 86 1007.9
20260507100717 13 234 3.2 14.5 0.00 0.05 0.05 87 1007.8
20260507100215 13 183 4.8 4.8 0.00 0.05 0.05 87 1008.0
20260507095713 13 157 0.0 4.8 0.00 0.05 0.05 88 1007.6
20260507095209 13 318 0.0 9.7 0.00 0.05 0.05 87 1007.2
20260507094706 13 47 1.6 3.2 0.00 0.05 0.05 89 1007.2
20260507094203 13 345 0.0 4.8 0.00 0.05 0.05 89 1007.3
20260507093700 13 251 1.6 4.8 0.00 0.05 0.05 89 1007.2
20260507093159 13 164 3.2 4.8 0.00 0.05 0.05 89 1007.2
20260507092655 13 183 3.2 4.8 0.00 0.05 0.05 89 1007.3
20260507092151 13 314 3.2 8.0 0.00 0.05 0.05 89 1007.4
20260507091648 13 31 3.2 4.8 0.00 0.05 0.05 90 1007.2
20260507091144 13 3 3.2 4.8 0.00 0.05 0.05 90 1007.2
20260507090640 13 332 4.8 4.8 0.00 0.05 0.05 89 1007.1
20260507090137 13 172 1.6 4.8 0.00 0.05 0.05 90 1007.2
20260507085634 13 261 1.6 8.0 0.00 0.05 0.05 90 1006.8
20260507085131 13 299 1.6 4.8 0.00 0.05 0.05 89 1007.0
20260507084628 13 266 4.8 6.4 0.00 0.05 0.05 91 1007.0
20260507084125 13 269 0.0 11.3 0.00 0.05 0.05 91 1007.1
20260507083621 13 230 1.6 4.8 0.00 0.05 0.05 92 1007.1
20260507083118 13 201 0.0 9.7 0.00 0.05 0.05 93 1006.7
20260507082614 14 168 0.0 3.2 0.00 0.05 0.05 93 1006.6
20260507082111 14 199 0.0 3.2 0.00 0.05 0.05 93 1006.6
20260507081607 14 166 1.6 3.2 0.00 0.05 0.05 93 1006.4
20260507081104 14 84 1.6 4.8 0.00 0.05 0.05 93 1006.4
20260507080600 14 335 4.8 4.8 0.00 0.05 0.05 93 1006.7
20260507080056 14 48 0.0 6.4 0.00 0.05 0.05 93 1006.7
20260507075551 14 113 1.6 3.2 0.00 0.05 0.05 93 1006.8
20260507075048 14 204 4.8 4.8 0.00 0.05 0.05 93 1007.0
20260507074545 15 51 1.6 6.4 0.00 0.05 0.05 94 1007.0
20260507074043 15 154 4.8 4.8 0.00 0.05 0.05 94 1006.7
20260507073538 15 44 0.0 4.8 0.00 0.05 0.05 94 1006.6
20260507073030 15 233 3.2 4.8 0.00 0.05 0.05 94 1006.8
20260507072527 15 226 4.8 4.8 0.00 0.05 0.05 94 1006.5
20260507072024 15 112 3.2 6.4 0.00 0.05 0.05 94 1006.5
20260507071522 15 245 0.0 6.4 0.00 0.05 0.05 94 1006.1
20260507071018 15 222 4.8 4.8 0.00 0.05 0.05 94 1006.1
20260507070516 15 258 4.8 6.4 0.00 0.05 0.05 94 1005.8
20260507070014 16 277 1.6 4.8 0.00 0.05 0.05 95 1005.5
20260507065509 16 3 0.0 3.2 0.00 0.05 0.05 96 1005.4
20260507065006 16 298 0.0 3.2 0.00 0.05 0.05 96 1005.3
20260507064504 16 159 0.0 1.6 0.00 0.05 0.05 96 1005.2
20260507064003 16 130 0.0 4.8 0.00 0.05 0.05 95 1005.1
20260507063459 16 190 0.0 1.6 0.00 0.05 0.05 96 1004.9
20260507062956 16 221 0.0 1.6 0.00 0.05 0.05 96 1004.8
20260507062453 16 210 0.0 3.2 0.00 0.05 0.05 96 1005.1
20260507061950 16 244 0.0 1.6 0.00 0.05 0.05 96 1005.2
20260507061448 17 208 0.0 3.2 0.00 0.05 0.05 96 1005.2
20260507060946 17 251 1.6 3.2 0.00 0.05 0.05 96 1005.2
20260507060443 17 2 0.0 4.8 0.05 0.05 0.05 96 1005.7
20260507055939 17 31 0.0 1.6 0.05 0.05 0.05 96 1005.6
20260507055435 17 109 0.0 3.2 0.00 0.05 0.05 96 1005.6
20260507054932 17 291 0.0 1.6 0.00 0.05 0.05 96 1005.6
20260507054428 17 79 3.2 3.2 0.00 0.05 0.05 96 1005.8
20260507053925 17 184 0.0 3.2 0.05 0.05 0.05 96 1006.0
20260507053422 17 149 1.6 6.4 0.18 0.05 0.05 96 1006.0
20260507052921 17 254 0.0 4.8 0.23 0.05 0.05 96 1005.8
20260507052418 17 211 0.0 3.2 0.13 0.03 0.03 95 1005.8
20260507051909 17 113 0.0 3.2 0.00 0.00 0.00 95 1005.8
20260507051407 17 131 0.0 1.6 0.00 0.00 0.00 95 1006.1
20260507050904 17 102 0.0 3.2 0.00 0.00 0.00 94 1006.0
20260507050400 17 110 0.0 1.6 0.00 0.00 0.00 94 1005.8
20260507045857 17 260 0.0 1.6 0.00 0.00 0.00 94 1005.8
20260507045353 17 180 0.0 1.6 0.00 0.00 0.00 94 1005.7
20260507044851 17 243 0.0 1.6 0.00 0.00 0.00 94 1005.7
20260507044347 17 204 0.0 1.6 0.00 0.00 0.00 94 1005.8
20260507043843 17 124 0.0 3.2 0.00 0.00 0.00 94 1006.0
20260507043340 17 116 1.6 3.2 0.00 0.00 0.00 94 1005.7
20260507042836 17 89 0.0 1.6 0.00 0.00 0.00 94 1005.5
20260507042332 17 20 0.0 1.6 0.00 0.00 0.00 94 1005.6
20260507041829 17 126 0.0 1.6 0.00 0.00 0.00 94 1006.0
20260507041325 17 184 0.0 0.0 0.00 0.00 0.00 94 1005.6
20260507040823 17 256 0.0 0.0 0.00 0.00 0.00 93 1005.8
20260507040319 17 123 1.6 1.6 0.00 0.00 0.00 93 1005.6
20260507035815 17 49 0.0 1.6 0.00 0.13 0.13 93 1005.8
20260507035310 17 124 0.0 3.2 0.00 0.13 0.13 93 1006.1
20260507034809 17 11 0.0 1.6 0.00 0.13 0.13 93 1005.9
20260507034305 17 269 0.0 1.6 0.00 0.13 0.13 93 1006.2
20260507033803 17 233 1.6 1.6 0.00 0.13 0.13 93 1006.1
20260507033301 17 326 0.0 3.2 0.00 0.13 0.13 93 1006.0
20260507032757 17 251 0.0 3.2 0.00 0.13 0.13 93 1005.7
20260507032253 17 299 0.0 1.6 0.00 0.13 0.13 93 1005.6
20260507031750 17 129 0.0 0.0 0.00 0.13 0.13 93 1005.2
20260507031247 17 147 0.0 1.6 0.00 0.13 0.13 93 1005.2
20260507030744 17 136 1.6 3.2 0.00 0.13 0.13 93 1005.2
20260507030241 17 50 0.0 3.2 0.00 0.13 0.13 93 1005.2
20260507025738 17 102 3.2 3.2 0.00 0.13 0.13 93 1005.1
20260507025235 17 101 1.6 1.6 0.00 0.13 0.13 93 1005.2
20260507024734 17 98 0.0 1.6 0.00 0.13 0.13 93 1005.3
20260507024231 17 99 0.0 1.6 0.00 0.13 0.13 92 1005.1
20260507023726 17 100 1.6 3.2 0.00 0.13 0.13 92 1005.2
20260507023223 17 93 0.0 1.6 0.00 0.13 0.13 92 1005.5
20260507022720 17 99 0.0 0.0 0.00 0.13 0.13 92 1005.8
20260507022216 17 99 0.0 1.6 0.00 0.13 0.13 92 1005.5
20260507021713 17 142 0.0 1.6 0.00 0.13 0.13 92 1005.8
20260507021208 17 89 0.0 0.0 0.00 0.13 0.13 92 1006.3
20260507020707 17 89 0.0 1.6 0.00 0.13 0.13 92 1006.0
20260507020202 17 128 0.0 3.2 0.00 0.13 0.13 92 1005.9
20260507015701 17 137 1.6 1.6 0.00 0.13 0.13 92 1005.7
20260507015158 17 89 0.0 1.6 0.00 0.13 0.13 92 1005.9
20260507014654 17 135 0.0 1.6 0.00 0.13 0.13 92 1005.8
20260507014150 17 205 0.0 0.0 0.00 0.13 0.13 91 1005.6
20260507013647 17 50 0.0 0.0 0.00 0.13 0.13 91 1005.6
20260507013144 18 50 0.0 1.6 0.00 0.13 0.13 91 1005.8
20260507012642 18 129 0.0 0.0 0.00 0.13 0.13 90 1005.5
20260507012137 18 129 0.0 1.6 0.00 0.13 0.13 90 1005.6
20260507011636 18 54 0.0 1.6 0.00 0.13 0.13 90 1005.6
20260507011131 18 110 1.6 1.6 0.00 0.13 0.13 89 1005.6
20260507010626 18 118 1.6 3.2 0.00 0.13 0.13 89 1005.6
20260507010123 18 123 0.0 1.6 0.00 0.13 0.13 88 1005.8
20260507005620 18 89 0.0 3.2 0.00 0.13 0.13 88 1005.6
20260507005116 18 110 0.0 1.6 0.00 0.13 0.13 88 1005.8
20260507004613 18 45 0.0 1.6 0.00 0.13 0.13 87 1005.4
20260507004110 19 101 0.0 1.6 0.00 0.13 0.13 86 1005.7
20260507003606 19 95 0.0 3.2 0.00 0.13 0.13 86 1005.6
20260507003101 19 106 1.6 1.6 0.00 0.13 0.13 85 1005.5
20260507002558 19 89 0.0 0.0 0.00 0.13 0.13 85 1005.5
20260507002054 19 122 1.6 3.2 0.00 0.13 0.13 85 1005.5
20260507001551 19 107 0.0 3.2 0.00 0.13 0.13 85 1005.2
20260507001049 20 123 0.0 3.2 0.00 0.13 0.13 85 1005.5
20260507000545 20 129 0.0 1.6 0.00 0.13 0.13 84 1005.3
20260507000040 20 98 0.0 3.2 0.00 0.13 0.13 84 1005.2
20260506235538 20 105 0.0 1.6 0.00 0.13 0.13 84 1005.2
20260506235033 20 126 0.0 3.2 0.00 0.13 0.13 83 1005.1
20260506234530 20 110 0.0 1.6 0.00 0.13 0.13 83 1005.1
20260506234022 20 109 1.6 1.6 0.00 0.13 0.13 82 1005.1
20260506233519 20 152 1.6 3.2 0.00 0.13 0.13 82 1005.2
20260506233016 20 55 0.0 3.2 0.00 0.13 0.13 82 1005.2
20260506232512 20 115 3.2 3.2 0.00 0.13 0.13 82 1005.0
20260506232007 20 122 3.2 4.8 0.00 0.13 0.13 81 1004.9
20260506231505 20 151 0.0 4.8 0.00 0.13 0.13 81 1004.9
20260506231003 20 128 3.2 3.2 0.00 0.13 0.13 81 1004.7
20260506230459 20 119 4.8 4.8 0.00 0.13 0.13 81 1005.1
20260506225956 20 117 3.2 4.8 0.00 0.13 0.13 80 1004.9
20260506225453 21 212 0.0 4.8 0.00 0.13 0.13 80 1004.9
20260506224949 21 187 1.6 4.8 0.00 0.13 0.13 80 1005.1
20260506224446 21 48 3.2 4.8 0.00 0.13 0.13 79 1005.0
20260506223943 21 335 0.0 4.8 0.00 0.13 0.13 80 1004.7
20260506223439 21 219 0.0 3.2 0.00 0.13 0.13 79 1004.9
20260506222936 21 127 3.2 4.8 0.00 0.13 0.13 80 1005.3
20260506222432 21 207 3.2 4.8 0.00 0.13 0.13 79 1005.3
20260506221929 21 203 1.6 4.8 0.00 0.13 0.13 80 1004.9
20260506221426 20 78 1.6 4.8 0.00 0.13 0.13 80 1004.9
20260506220924 20 147 1.6 3.2 0.00 0.13 0.13 80 1005.1
20260506220419 21 191 0.0 6.4 0.00 0.13 0.13 80 1005.1
20260506215916 20 113 3.2 4.8 0.00 0.13 0.13 80 1005.0
20260506215412 20 94 1.6 3.2 0.00 0.13 0.13 80 1005.1
20260506214908 20 81 3.2 6.4 0.00 0.13 0.13 80 1004.9
20260506214405 20 166 1.6 4.8 0.00 0.13 0.13 80 1005.2
20260506213903 20 111 3.2 4.8 0.00 0.13 0.13 80 1005.3
20260506213401 20 141 0.0 4.8 0.00 0.13 0.13 80 1005.4
20260506212858 20 43 0.0 6.4 0.00 0.13 0.13 80 1005.4
20260506212353 20 140 0.0 3.2 0.00 0.13 0.13 80 1005.5
20260506211848 20 150 1.6 4.8 0.00 0.13 0.13 79 1005.3
20260506211345 20 159 3.2 4.8 0.00 0.13 0.13 79 1005.4
20260506210842 20 106 3.2 8.0 0.00 0.13 0.13 80 1005.2
20260506210339 20 225 8.0 8.0 0.00 0.13 0.13 78 1005.3
20260506205836 20 233 0.0 4.8 0.00 0.13 0.13 79 1005.2
20260506205332 20 89 0.0 4.8 0.00 0.13 0.13 80 1005.0
20260506204829 20 63 1.6 4.8 0.00 0.13 0.13 81 1005.5
20260506204326 20 311 3.2 4.8 0.00 0.13 0.13 81 1005.1
20260506203824 20 177 0.0 3.2 0.00 0.13 0.13 82 1005.2
20260506203321 20 160 1.6 4.8 0.00 0.13 0.13 82 1004.9
20260506202817 20 143 3.2 12.9 0.00 0.13 0.13 81 1005.0
20260506202315 20 117 3.2 8.0 0.00 0.13 0.13 82 1005.2
20260506201811 20 165 3.2 3.2 0.00 0.13 0.13 82 1005.2
20260506201309 20 156 0.0 4.8 0.00 0.13 0.13 82 1005.3
20260506200805 20 76 3.2 6.4 0.00 0.13 0.13 82 1005.3
20260506200301 19 312 1.6 4.8 0.00 0.13 0.13 83 1005.1
20260506195758 19 148 1.6 4.8 0.00 0.13 0.13 83 1005.2
20260506195255 19 97 4.8 6.4 0.00 0.13 0.13 83 1005.5
20260506194752 19 218 0.0 3.2 0.00 0.13 0.13 83 1005.8
20260506194248 19 267 3.2 6.4 0.00 0.13 0.13 83 1005.6
20260506193746 20 324 1.6 8.0 0.00 0.13 0.13 82 1005.5
20260506193243 20 192 0.0 6.4 0.00 0.13 0.13 82 1005.8
20260506192739 20 126 4.8 8.0 0.00 0.13 0.13 82 1005.7
20260506192236 20 196 0.0 4.8 0.00 0.13 0.13 82 1005.7
20260506191732 20 20 0.0 4.8 0.00 0.13 0.13 83 1005.6
20260506191229 20 113 3.2 4.8 0.00 0.13 0.13 83 1005.8
20260506190726 20 154 0.0 6.4 0.00 0.13 0.13 83 1005.9
20260506190223 19 326 0.0 6.4 0.00 0.13 0.13 82 1005.7
20260506185720 19 74 1.6 4.8 0.00 0.13 0.13 84 1005.8
20260506185216 19 159 4.8 4.8 0.00 0.13 0.13 83 1006.3
20260506184714 19 146 3.2 6.4 0.00 0.13 0.13 82 1006.1
20260506184211 19 29 0.0 6.4 0.00 0.13 0.13 84 1006.4
20260506183708 19 134 1.6 4.8 0.00 0.13 0.13 83 1006.5
20260506183203 19 156 6.4 6.4 0.00 0.13 0.13 82 1006.3
20260506182701 19 124 0.0 6.4 0.00 0.13 0.13 83 1006.3
20260506182158 19 83 3.2 6.4 0.00 0.13 0.13 83 1006.0
20260506181655 18 133 0.0 4.8 0.00 0.13 0.13 84 1006.2
20260506181152 18 150 4.8 6.4 0.00 0.13 0.13 85 1006.1
20260506180649 18 102 1.6 4.8 0.00 0.13 0.13 86 1006.4
20260506180140 18 112 3.2 4.8 0.00 0.13 0.13 87 1006.5
20260506175637 18 135 3.2 3.2 0.00 0.13 0.13 88 1006.6
20260506175132 18 226 1.6 3.2 0.00 0.13 0.13 89 1006.5
20260506174626 18 35 3.2 4.8 0.00 0.13 0.13 88 1006.6
20260506174122 18 76 3.2 4.8 0.00 0.13 0.13 90 1006.7
20260506173620 18 70 1.6 4.8 0.00 0.13 0.13 90 1006.7
20260506173116 17 107 3.2 4.8 0.00 0.13 0.13 90 1006.6
20260506172614 17 195 0.0 3.2 0.00 0.13 0.13 90 1006.8
20260506172110 17 94 3.2 8.0 0.00 0.13 0.13 91 1006.9
20260506171608 17 130 0.0 6.4 0.00 0.13 0.13 91 1006.7
20260506171105 17 89 0.0 3.2 0.00 0.13 0.13 91 1006.9
20260506170601 17 87 1.6 4.8 0.00 0.13 0.13 92 1006.6
20260506170054 17 99 1.6 3.2 0.00 0.13 0.13 92 1006.7
20260506165552 17 104 3.2 8.0 0.00 0.13 0.13 92 1007.1
20260506165048 17 108 1.6 6.4 0.00 0.13 0.13 92 1006.9
20260506164545 17 299 0.0 4.8 0.00 0.13 0.13 93 1006.9
20260506164042 16 293 0.0 4.8 0.00 0.13 0.13 93 1006.9
20260506163538 16 96 0.0 4.8 0.05 0.13 0.13 93 1006.9
20260506163034 16 110 1.6 4.8 0.05 0.13 0.13 93 1006.9
20260506162530 16 227 3.2 4.8 0.05 0.10 0.10 93 1006.8
20260506162027 16 152 0.0 4.8 0.13 0.10 0.10 93 1007.3
20260506161524 16 158 3.2 3.2 0.05 0.10 0.10 93 1007.3
20260506161016 16 86 3.2 6.4 0.13 0.10 0.10 93 1007.6
20260506160513 16 123 3.2 4.8 0.18 0.08 0.08 92 1007.3
20260506160010 16 141 3.2 6.4 0.23 0.05 0.05 92 1007.8
20260506155509 16 63 1.6 4.8 0.23 0.05 0.05 91 1007.8
20260506153640 17 72 4.8 4.8 0.05 0.00 0.00 88 1007.8
20260506153138 17 60 4.8 4.8 0.00 0.00 0.00 87 1008.0
20260506152634 17 100 1.6 4.8 0.00 0.00 0.00 86 1008.3
20260506152132 17 100 1.6 4.8 0.00 0.00 0.00 86 1008.3
20260506151631 17 118 3.2 4.8 0.00 0.00 0.00 85 1008.2
20260506151127 17 103 1.6 6.4 0.00 0.00 0.00 84 1008.2
20260506150624 17 104 3.2 6.4 0.00 0.00 0.00 84 1008.3
20260506150121 18 117 4.8 4.8 0.00 0.00 0.00 84 1008.3
20260506145618 18 204 3.2 3.2 0.00 0.00 0.00 85 1008.4
20260506145115 17 89 0.0 4.8 0.00 0.00 0.00 84 1008.2
20260506144612 17 324 0.0 3.2 0.00 0.00 0.00 85 1008.0
20260506144109 17 89 0.0 1.6 0.00 0.00 0.00 85 1008.2
20260506143607 17 108 3.2 3.2 0.00 0.00 0.00 84 1008.1
20260506143104 17 37 0.0 0.0 0.00 0.00 0.00 84 1007.9
20260506142602 17 89 0.0 3.2 0.00 0.00 0.00 82 1007.9
20260506142100 18 137 1.6 3.2 0.00 0.00 0.00 80 1007.9
20260506141557 18 342 0.0 1.6 0.00 0.00 0.00 78 1008.0
20260506141056 18 102 1.6 6.4 0.00 0.00 0.00 76 1007.9
20260506140553 18 80 3.2 3.2 0.00 0.00 0.00 74 1008.0
20260506140050 19 159 0.0 4.8 0.00 0.00 0.00 72 1007.8
20260506135547 19 229 6.4 8.0 0.00 0.00 0.00 71 1008.0
20260506135043 19 83 0.0 4.8 0.00 0.00 0.00 71 1008.2
20260506134540 19 141 3.2 4.8 0.00 0.00 0.00 71 1008.3
20260506134035 19 124 0.0 6.4 0.00 0.00 0.00 71 1008.3
20260506133533 19 340 0.0 4.8 0.00 0.00 0.00 71 1008.0
20260506133030 19 144 4.8 6.4 0.00 0.00 0.00 70 1008.0
20260506132527 19 50 4.8 4.8 0.00 0.00 0.00 71 1008.0
20260506132024 19 103 1.6 4.8 0.00 0.00 0.00 71 1008.0
20260506131521 19 57 3.2 6.4 0.00 0.00 0.00 71 1008.0
20260506131018 19 189 4.8 4.8 0.00 0.00 0.00 71 1007.8
20260506130514 19 121 4.8 8.0 0.00 0.00 0.00 70 1007.8
20260506130012 19 99 4.8 4.8 0.00 0.00 0.00 71 1007.8
20260506125510 19 318 3.2 4.8 0.00 0.00 0.00 71 1007.7
20260506125008 19 166 4.8 8.0 0.00 0.00 0.00 70 1007.8
20260506124505 18 101 1.6 6.4 0.00 0.00 0.00 71 1007.8
20260506124003 18 85 3.2 8.0 0.00 0.00 0.00 71 1008.2
20260506123501 18 115 6.4 8.0 0.00 0.00 0.00 72 1007.4
20260506122958 18 64 4.8 8.0 0.00 0.00 0.00 71 1007.9
20260506122455 18 103 3.2 4.8 0.00 0.00 0.00 72 1008.0
20260506121953 18 109 3.2 8.0 0.00 0.00 0.00 72 1008.1
20260506121450 18 48 3.2 8.0 0.00 0.00 0.00 73 1008.3
20260506120947 18 108 4.8 8.0 0.00 0.00 0.00 73 1008.2
20260506120444 18 85 3.2 6.4 0.00 0.00 0.00 73 1008.0
20260506115941 18 47 1.6 6.4 0.00 0.00 0.00 73 1008.1
20260506115439 18 228 0.0 6.4 0.00 0.00 0.00 73 1008.5
20260506114938 18 109 1.6 4.8 0.00 0.00 0.00 72 1008.3
20260506114435 18 32 1.6 8.0 0.00 0.00 0.00 72 1008.2
20260506113933 18 94 3.2 9.7 0.00 0.00 0.00 72 1008.2
20260506113431 18 81 3.2 8.0 0.00 0.00 0.00 72 1008.0
20260506112927 18 111 0.0 4.8 0.00 0.00 0.00 72 1008.1
20260506112425 18 110 6.4 6.4 0.00 0.00 0.00 72 1008.0
20260506111922 18 224 3.2 4.8 0.00 0.00 0.00 72 1007.9
20260506111420 18 92 3.2 9.7 0.00 0.00 0.00 72 1008.0
20260506110916 17 102 3.2 4.8 0.00 0.00 0.00 73 1007.8
20260506110414 17 130 6.4 6.4 0.00 0.00 0.00 74 1007.9
20260506105911 17 317 0.0 4.8 0.00 0.00 0.00 73 1007.8
20260506105407 17 70 3.2 3.2 0.00 0.00 0.00 73 1007.8
20260506104904 17 82 1.6 4.8 0.00 0.00 0.00 73 1008.0
20260506104402 17 322 3.2 4.8 0.00 0.00 0.00 73 1007.8
20260506103900 17 68 3.2 4.8 0.00 0.00 0.00 73 1007.9
20260506103357 17 111 3.2 4.8 0.00 0.00 0.00 72 1007.7
20260506102854 17 115 3.2 6.4 0.00 0.00 0.00 73 1007.5
20260506102352 17 80 1.6 9.7 0.00 0.00 0.00 74 1007.7
20260506101849 17 138 0.0 9.7 0.00 0.00 0.00 74 1007.6